Location: Cantaing
(50.1487°N, 3.1675°E)
Time: 19:25:48
(UTC+00:00)

Okean 2 - Pass Details

Date: 14 January 2026
Orbit: 515 x 525 km, 82.5° (Epoch: 13 February)

Event Time Altitude Azimuth Distance (km) Brightness Sun altitude
Exits shadow 06:17:26 21° 277° (W) 1,213 4.4 -12.9°
Maximum altitude 06:17:39 21° 272° (W) 1,209 4.5 -12.9°
Drops below altitude 10° 06:20:33 10° 223° (SW) 1,741 5.6 -12.5°
Sets 06:23:02 0° 207° (SSW) 2,622 6.7 -12.1°
